Waarnemingen

Advertentie
Mijn weer
Landsort, Zweden (2582): temperatuur & dauwpunt: 13.11.2017 20:00:00 - 19.11.2017 20:00:00 (CET)Landsort, Zweden (2582): windsnelheid & windstoten: 13.11.2017 20:00:00 - 19.11.2017 20:00:00 (CET)Landsort, Zweden (2582): windrichting: 13.11.2017 20:00:00 - 19.11.2017 20:00:00 (CET)Landsort, Zweden (2582): luchtdruk: 13.11.2017 20:00:00 - 19.11.2017 20:00:00 (CET)Landsort, Zweden (2582): zicht: 13.11.2017 20:00:00 - 19.11.2017 20:00:00 (CET)Landsort, Zweden (2582): neerslag: 13.11.2017 20:00:00 - 19.11.2017 20:00:00 (CET)
Datum & Tijd tt [°C] td [°C] ff [km/u] ff [kn] fx [km/u] fx [kn] dd ppp [hPa] vv [km] rr [mm]
19.11.2017 20:00:00 - - - - - - - - - -
19.11.2017 19:00:00 -1,1 -3,5 19 10 - - NNW 1001,1 50 0,0
19.11.2017 18:00:00 -1,7 -4,2 21 11 42 23 N 1000,9 50 0,0
19.11.2017 17:00:00 -1,4 -3,9 26 14 45 24 N 1000,3 50 0,0
19.11.2017 16:00:00 -0,5 -3,0 24 13 49 26 N 999,8 50 0,0
19.11.2017 15:00:00 0,3 -2,2 24 13 49 26 N 998,9 50 0,0
19.11.2017 14:00:00 1,2 -1,2 34 18 49 27 NNO 998,3 50 0,0
19.11.2017 13:00:00 1,7 -0,9 36 19 55 30 NNO 997,8 50 0,0
19.11.2017 12:00:00 1,9 0,0 39 21 57 31 NNO 997,2 50 0,0
19.11.2017 11:00:00 2,6 1,3 40 21 57 31 NNO 996,8 50 0,0
19.11.2017 10:00:00 2,7 1,5 38 21 51 28 NNO 996,2 50 0,0
19.11.2017 09:00:00 2,9 1,4 35 19 42 23 NNO 995,6 50 0,0
19.11.2017 08:00:00 3,4 1,4 37 20 42 23 NNO 995,2 50 0,0
19.11.2017 07:00:00 3,7 2,7 34 18 41 22 NNO 994,7 50 0,0
19.11.2017 06:00:00 4,6 1,3 27 14 31 17 NO 994,3 50 0,0
19.11.2017 05:00:00 4,5 2,0 21 11 30 16 NO 994,1 50 0,0
19.11.2017 04:00:00 4,6 -0,4 6 4 10 5 OZO 994,2 50 0,0
19.11.2017 03:00:00 4,2 0,0 4 2 7 4 Z 994,1 50 0,0
19.11.2017 02:00:00 3,6 1,3 2 1 13 7 O 994,3 50 0,0
19.11.2017 01:00:00 3,9 1,1 2 1 14 8 WZW 994,5 50 0,0
19.11.2017 00:00:00 4,2 1,6 9 5 20 11 W 994,5 50 0,0
18.11.2017 23:00:00 4,0 1,4 10 6 23 12 W 994,7 50 0,0
18.11.2017 22:00:00 4,3 2,2 17 9 29 16 W 994,8 48 0,0
18.11.2017 21:00:00 4,5 2,2 18 10 33 18 W 994,7 47 0,0
18.11.2017 20:00:00 4,8 2,3 24 13 35 19 W 994,6 50 0,0
18.11.2017 19:00:00 5,0 2,0 27 15 37 20 W 994,5 50 0,0
18.11.2017 18:00:00 5,3 2,0 27 15 37 20 W 994,5 50 0,0
18.11.2017 17:00:00 5,7 2,3 27 15 39 21 W 994,7 50 0,0
18.11.2017 16:00:00 5,7 2,5 25 13 50 27 W 994,8 50 0,0
18.11.2017 15:00:00 5,9 2,4 33 18 50 27 W 995,2 50 0,0
18.11.2017 14:00:00 6,5 2,6 34 19 64 35 W 995,5 50 0,0
18.11.2017 13:00:00 6,2 3,4 28 15 64 35 WZW 996,0 43 0,2
18.11.2017 12:00:00 7,1 3,2 39 21 58 32 ZW 996,1 49 0,0
18.11.2017 11:00:00 7,0 3,8 40 22 63 34 ZW 997,0 45 0,0
18.11.2017 10:00:00 6,8 3,8 37 20 65 35 ZW 997,8 31 0,0
18.11.2017 09:00:00 6,7 4,0 44 24 68 37 ZW 998,5 31 0,0
18.11.2017 08:00:00 6,8 3,8 50 27 68 37 ZW 998,9 32 0,0
18.11.2017 07:00:00 6,7 4,0 46 25 65 35 ZW 999,7 33 0,0
18.11.2017 06:00:00 6,7 3,8 45 24 65 35 ZW 1000,5 29 0,0
18.11.2017 05:00:00 7,1 3,7 41 22 64 35 ZW 1001,4 30 0,0
18.11.2017 04:00:00 7,1 4,2 43 23 64 35 ZW 1002,2 22 0,0
18.11.2017 03:00:00 7,1 4,2 45 24 63 34 ZW 1003,3 23 0,0
18.11.2017 02:00:00 7,1 3,9 45 25 61 33 ZW 1004,0 22 0,0
18.11.2017 01:00:00 7,0 4,0 41 22 56 31 WZW 1004,7 22 0,0
18.11.2017 00:00:00 7,1 3,7 42 23 56 31 WZW 1005,6 24 0,0
17.11.2017 23:00:00 7,3 3,9 41 22 57 31 WZW 1006,6 24 0,0
17.11.2017 22:00:00 7,4 4,0 41 22 58 31 WZW 1006,8 20 0,0
17.11.2017 21:00:00 7,6 3,8 45 25 58 31 WZW 1007,0 21 0,0
17.11.2017 20:00:00 7,5 3,9 44 24 58 32 WZW 1007,2 19 0,0
17.11.2017 19:00:00 7,8 4,0 42 23 61 33 WZW 1007,8 18 0,0
17.11.2017 18:00:00 7,8 3,6 44 24 64 35 WZW 1007,9 18 0,0
17.11.2017 17:00:00 7,8 3,5 45 25 67 36 WZW 1008,3 20 0,0
17.11.2017 16:00:00 7,7 3,5 48 26 68 37 WZW 1008,4 20 0,0
17.11.2017 15:00:00 7,5 3,0 49 26 71 38 WZW 1008,2 23 0,0
17.11.2017 14:00:00 7,2 2,5 53 29 71 38 WZW 1008,6 26 0,0
17.11.2017 13:00:00 6,8 2,5 48 26 62 33 WZW 1009,1 31 0,0
17.11.2017 12:00:00 6,6 1,5 45 25 66 35 W 1009,2 38 0,0
17.11.2017 11:00:00 6,3 1,8 51 27 66 35 W 1009,1 31 0,0
17.11.2017 10:00:00 6,0 2,1 48 26 68 37 W 1008,6 24 0,0
17.11.2017 09:00:00 5,7 2,5 49 26 68 37 W 1008,0 28 0,0
17.11.2017 08:00:00 5,7 2,7 49 26 72 39 W 1007,5 30 0,0
17.11.2017 07:00:00 5,8 3,0 56 30 72 39 W 1006,6 24 0,0
17.11.2017 06:00:00 6,1 3,4 51 28 70 38 W 1006,1 25 0,0
17.11.2017 05:00:00 6,4 3,2 54 29 73 39 W 1005,7 29 0,0
17.11.2017 04:00:00 7,1 4,1 52 28 73 40 W 1005,5 38 0,0
17.11.2017 03:00:00 7,9 5,2 55 30 71 38 WZW 1005,7 36 0,0
17.11.2017 02:00:00 8,2 7,9 46 25 67 36 ZW 1005,5 16 0,2
17.11.2017 01:00:00 7,9 7,8 46 25 63 34 ZZW 1006,3 6 1,0
17.11.2017 00:00:00 7,6 7,5 42 23 65 35 ZZW 1007,6 6 1,3
16.11.2017 23:00:00 7,2 7,1 42 23 66 36 ZZW 1009,1 4,3 2,2
16.11.2017 22:00:00 7,3 7,0 43 23 66 36 ZZW 1010,3 5 0,7
16.11.2017 21:00:00 6,9 6,2 34 18 50 27 ZZW 1011,8 19 0,0
16.11.2017 20:00:00 6,0 4,6 36 19 51 28 ZZW 1013,1 29 0,0
16.11.2017 19:00:00 4,6 4,2 32 18 51 28 ZW 1014,4 28 0,0
16.11.2017 18:00:00 5,4 4,4 26 14 39 21 ZZW 1015,1 29 0,0
16.11.2017 17:00:00 6,1 3,8 25 13 34 19 ZW 1016,2 28 0,0
16.11.2017 16:00:00 6,1 3,6 25 14 31 17 ZW 1017,0 31 0,0
16.11.2017 15:00:00 6,0 3,7 21 11 28 15 WZW 1017,8 29 0,0
16.11.2017 14:00:00 6,1 3,1 18 10 24 13 ZW 1018,2 36 0,0
16.11.2017 13:00:00 6,0 3,7 13 7 21 11 ZW 1018,7 26 0,0
16.11.2017 12:00:00 - - - - - - - - - -
16.11.2017 11:00:00 - - - - - - - - - -
16.11.2017 10:00:00 4,2 1,1 16 8 27 14 W 1019,6 47 0,0
16.11.2017 09:00:00 3,9 0,4 18 10 30 16 W 1019,6 48 0,0
16.11.2017 08:00:00 3,5 0,5 21 11 32 17 W 1019,7 50 0,0
16.11.2017 07:00:00 3,0 -0,1 15 8 34 19 WNW 1019,3 50 0,0
16.11.2017 06:00:00 3,2 0,3 23 12 34 19 W 1019,0 50 0,0
16.11.2017 05:00:00 3,4 0,3 21 11 32 17 WNW 1018,9 50 0,0
16.11.2017 04:00:00 3,5 -0,7 20 11 - - WNW 1018,5 50 0,0
16.11.2017 03:00:00 3,6 0,3 21 11 36 20 WNW 1018,5 50 0,0
16.11.2017 02:00:00 3,9 0,2 23 13 46 25 WNW 1018,1 50 0,0
16.11.2017 01:00:00 4,2 0,5 27 15 46 25 WNW 1017,6 50 0,0
16.11.2017 00:00:00 4,4 0,7 31 17 45 24 WNW 1017,0 50 0,0
15.11.2017 23:00:00 4,7 1,0 26 14 48 26 WNW 1016,4 50 0,0
15.11.2017 22:00:00 4,7 1,0 33 18 48 26 WNW 1015,9 50 0,0
15.11.2017 21:00:00 4,8 1,1 28 15 53 28 WNW 1015,6 50 0,0
15.11.2017 20:00:00 4,9 1,4 33 18 53 29 WNW 1015,0 50 0,0
15.11.2017 19:00:00 5,3 1,6 40 21 56 30 WNW 1014,4 50 0,0
15.11.2017 18:00:00 5,6 1,9 41 22 56 30 WNW 1013,6 50 0,0
15.11.2017 17:00:00 5,9 2,5 40 22 57 31 WNW 1012,9 50 0,0
15.11.2017 16:00:00 6,4 2,8 33 18 59 32 WNW 1011,9 50 0,0
15.11.2017 15:00:00 7,2 4,3 45 24 59 32 W 1010,6 39 0,0
15.11.2017 14:00:00 7,3 5,1 42 23 56 30 WZW 1010,3 28 0,0
15.11.2017 13:00:00 6,9 5,1 41 22 58 32 WZW 1010,4 27 0,0
15.11.2017 12:00:00 6,5 4,3 38 20 59 32 W 1010,9 26 0,0
15.11.2017 11:00:00 5,6 5,0 39 21 59 32 WZW 1011,1 24 0,0
15.11.2017 10:00:00 5,0 4,3 45 25 57 31 WZW 1011,3 30 0,0
15.11.2017 09:00:00 5,3 3,5 41 22 51 28 W 1011,3 46 0,0
15.11.2017 08:00:00 4,6 2,9 30 16 41 22 W 1011,4 50 0,0
15.11.2017 07:00:00 3,9 2,3 29 16 41 22 W 1011,3 50 0,0
15.11.2017 06:00:00 2,6 1,9 27 15 35 19 W 1011,4 50 0,0
15.11.2017 05:00:00 2,3 1,6 24 13 - - W 1011,7 50 0,0
15.11.2017 04:00:00 2,1 1,2 24 13 37 20 W 1011,5 50 0,0
15.11.2017 03:00:00 2,0 1,1 26 14 37 20 W 1011,5 50 0,0
15.11.2017 02:00:00 2,7 1,4 26 14 41 22 W 1011,2 50 0,0
15.11.2017 01:00:00 3,3 1,7 24 13 47 25 WNW 1010,7 50 0,0
15.11.2017 00:00:00 3,7 1,9 31 17 47 25 W 1010,3 50 0,0
14.11.2017 23:00:00 4,0 2,2 24 13 38 21 W 1010,2 50 0,0
14.11.2017 22:00:00 3,8 2,0 30 16 38 21 W 1009,9 50 0,0
14.11.2017 21:00:00 4,4 2,7 29 16 35 19 W 1009,8 50 0,0
14.11.2017 20:00:00 4,1 2,6 27 15 37 20 W 1009,7 50 0,0
14.11.2017 19:00:00 4,0 2,5 27 14 37 20 W 1009,6 50 0,0
14.11.2017 18:00:00 4,2 2,7 30 16 39 21 W 1009,2 22 0,1
14.11.2017 17:00:00 3,8 2,5 29 15 48 26 WZW 1009,3 13 0,2
14.11.2017 16:00:00 3,1 2,4 30 16 53 29 W 1009,6 5 80,6
14.11.2017 15:00:00 3,7 2,2 37 20 53 29 W 1009,4 11 0,0
14.11.2017 14:00:00 5,3 1,8 27 15 40 22 ZW 1009,4 50 0,0
14.11.2017 13:00:00 4,9 -0,7 22 12 32 18 ZW 1010,2 50 0,0
14.11.2017 12:00:00 3,9 0,9 21 12 30 16 ZW 1010,6 50 0,0
14.11.2017 11:00:00 - - - - - - - - - -
14.11.2017 10:00:00 - - - - - - - - - -
14.11.2017 09:00:00 2,0 -1,8 23 13 30 16 W 1011,3 50 0,0
14.11.2017 08:00:00 1,1 -2,0 22 12 30 16 W 1011,4 50 0,0
14.11.2017 07:00:00 0,8 -1,4 22 12 32 17 W 1011,2 50 0,0
14.11.2017 06:00:00 0,4 -0,9 27 14 33 18 W 1011,4 50 0,0
14.11.2017 05:00:00 1,0 -0,8 20 11 33 18 WNW 1011,1 50 0,0
14.11.2017 04:00:00 1,1 -0,4 24 13 32 18 WNW 1011,1 50 0,0
14.11.2017 03:00:00 1,3 -0,2 18 10 28 15 WNW 1011,2 50 0,0
14.11.2017 02:00:00 1,1 -0,8 16 9 29 16 WNW 1011,3 50 0,0
14.11.2017 01:00:00 1,5 -0,4 21 11 30 16 NW 1011,1 50 0,0
14.11.2017 00:00:00 1,6 -0,5 20 11 30 16 NW 1011,2 50 0,0
13.11.2017 23:00:00 1,9 -0,2 21 11 30 16 NW 1011,2 50 0,0
13.11.2017 22:00:00 1,9 -0,2 20 11 30 16 NW 1011,2 50 0,0
13.11.2017 21:00:00 2,1 -0,2 18 10 29 16 NW 1011,1 50 0,0
13.11.2017 20:00:00 2,4 -0,2 19 10 31 17 NW 1010,9 50 0,0

tt = temperatuur
td = dauwpunt
ff = windsnelheid
fx = windstoten
dd = windrichting
ppp = luchtdruk
vv = zicht
rr = neerslag

Weerstations in de omgeving